N1977 CYXU-CYXU

Flight info

Callsign N1977
Flight time N/A
Altitude 1100
Route TRAFFIC PATTERN TOUCH AND GO
Aircraft DA40/L-SGC/L

Departure

Time 2026-04-19 04:02
Airport London International Airport (CYXU)

Arrival

Time N/A
Airport London International Airport (CYXU)
Time Latitude Longitude Altitude Speed Heading
2026-04-19 03:31 43.03565 -81.16462 908 ft 0 kts 333°
2026-04-19 03:55 43.03579 -81.16467 909 ft 7 kts 354°
2026-04-19 03:55 43.03607 -81.16437 910 ft 13 kts 78°
2026-04-19 03:55 43.03634 -81.16208 909 ft 24 kts 82°
2026-04-19 03:56 43.03665 -81.16026 908 ft 17 kts 82°
2026-04-19 03:56 43.03685 -81.15876 907 ft 16 kts 82°
2026-04-19 03:56 43.03707 -81.15717 906 ft 9 kts 95°
2026-04-19 03:56 43.03667 -81.15645 907 ft 18 kts 142°
2026-04-19 03:57 43.03560 -81.15522 907 ft 17 kts 136°
2026-04-19 03:57 43.03476 -81.15422 910 ft 14 kts 141°
2026-04-19 03:57 43.03401 -81.15329 910 ft 10 kts 139°
2026-04-19 03:57 43.03330 -81.15248 910 ft 18 kts 135°
2026-04-19 03:58 43.03294 -81.15154 910 ft 8 kts 55°
2026-04-19 03:58 43.03362 -81.15068 914 ft 24 kts 44°
2026-04-19 03:58 43.03491 -81.14889 914 ft 25 kts 43°
2026-04-19 03:58 43.03588 -81.14760 912 ft 18 kts 43°
2026-04-19 03:59 43.03693 -81.14624 906 ft 26 kts 45°
2026-04-19 03:59 43.03782 -81.14505 905 ft 10 kts 43°
2026-04-19 03:59 43.03826 -81.14445 904 ft 7 kts 44°
2026-04-19 03:59 43.03861 -81.14414 905 ft 10 kts
2026-04-19 04:00 43.03874 -81.14414 905 ft 0 kts 344°
2026-04-19 04:01 43.03880 -81.14417 905 ft 6 kts 340°
2026-04-19 04:01 43.04024 -81.14487 907 ft 11 kts 339°
2026-04-19 04:01 43.04060 -81.14617 908 ft 27 kts 259°
2026-04-19 04:02 43.03992 -81.15105 935 ft 71 kts 263°
2026-04-19 04:02 43.03873 -81.15864 1043 ft 90 kts 262°
2026-04-19 04:02 43.03748 -81.16695 1294 ft 89 kts 262°
2026-04-19 04:02 43.03595 -81.17522 1568 ft 89 kts 253°
2026-04-19 04:03 43.03087 -81.18066 1784 ft 108 kts 202°
2026-04-19 04:03 43.02357 -81.17626 1971 ft 130 kts 131°
2026-04-19 04:03 43.01878 -81.16503 2073 ft 140 kts 123°
2026-04-19 04:03 43.01357 -81.15345 2094 ft 149 kts 126°
2026-04-19 04:04 43.00785 -81.14168 2094 ft 143 kts 129°
2026-04-19 04:04 43.00181 -81.13137 2017 ft 135 kts 136°
2026-04-19 04:04 42.99607 -81.12124 1863 ft 135 kts 129°
2026-04-19 04:04 42.99260 -81.11327 1816 ft 133 kts 106°